Weather History for Middlesboro, KY

Change the Weather History Date:

Saturday, September 8, 2012

  Actual Average (KLOZ) Record (KLOZ)
Temperature  
Mean Temperature 68 °F 71 °F  
Max Temperature 80 °F 82 °F 92 °F (2007)
Min Temperature 55 °F 60 °F 47 °F (1956)
Degree Days  
Heating Degree Days 0 0  
Month to date heating degree days 0  
Since 1 July heating degree days 1  
Cooling Degree Days 2 6  
Month to date cooling degree days 59  
Growing Degree Days 18 (Base 50)    
Moisture  
Dew Point 65 °F    
Average Humidity 84    
Maximum Humidity 100    
Minimum Humidity 69    
Precipitation  
Precipitation 0.06 in 0.11 in 1.30 in (2004)
Month to date precipitation 0.85  
Sea Level Pressure  
Sea Level Pressure 29.86 in    
Wind  
Wind Speed 4 mph (WNW)    
Max Wind Speed 13 mph    
Max Gust Speed 31 mph    
Visibility 10 miles    
Events Rain    
T = Trace of Precipitation, MM = Missing Value Source: NWS Daily Summary

Daily Weather History Graph

Daily Weather History Graph

Search for Another Location

Airport:

Trip Planner

Search our weather history database for the weather conditions in past years. The results will help you decide how hot, cold, wet, or windy it might be!

Date:

Astronomy

Sep. 08, 2012 Rise Set
Actual Time 6:12 AM CDT 6:52 PM CDT
Civil Twilight 5:45 AM CDT 7:18 PM CDT
Nautical Twilight 5:15 AM CDT 7:48 PM CDT
Astronomical Twilight 4:43 AM CDT 8:20 PM CDT
Moon 11:48 PM CDT (9/8) 1:41 PM CDT (9/8)
Length of Visible Light 13h 32m
Length of Day
12h 40m
Waning Gibbous, 48% of the Moon is Illuminated
Sep 8
Waning Gibbous
Sep 15
New
Sep 22
First Quarter
Sep 29
Full
Oct 8
Last Quarter

Hourly Weather History & Observations

Time (CDT) Temp. Heat Index Dew Point Humidity Pressure Visibility Wind Dir Wind Speed Gust Speed Precip Events Conditions
12:15 AM 71.6 °F - 69.8 °F 94% 29.83 in 10.0 mi Calm Calm - N/A   Clear
12:35 AM 71.6 °F - 69.8 °F 94% 29.83 in 10.0 mi Calm Calm - N/A   Clear
12:55 AM 71.6 °F - 69.8 °F 94% 29.83 in 10.0 mi Calm Calm - N/A   Clear
1:15 AM 69.8 °F - 69.8 °F 100% 29.82 in 10.0 mi Calm Calm - N/A   Clear
1:35 AM 78.8 °F - 69.8 °F 74% 29.80 in 10.0 mi SSW 9.2 mph - N/A   Clear
1:55 AM 78.8 °F - 69.8 °F 74% 29.80 in 10.0 mi SSW 6.9 mph - N/A   Clear
2:15 AM 78.8 °F - 69.8 °F 74% 29.79 in 10.0 mi SSW 9.2 mph 23.0 mph N/A   Clear
2:35 AM 78.8 °F - 69.8 °F 74% 29.79 in 10.0 mi South 10.4 mph 17.3 mph N/A   Clear
2:55 AM 78.8 °F - 69.8 °F 74% 29.79 in 10.0 mi South 10.4 mph 18.4 mph N/A   Clear
3:15 AM 78.8 °F - 69.8 °F 74% 29.79 in 10.0 mi SSW 8.1 mph 19.6 mph N/A   Clear
3:35 AM 80.6 °F 83.9 °F 69.8 °F 70% 29.79 in 10.0 mi SW 6.9 mph - N/A   Clear
3:55 AM 80.6 °F 83.9 °F 69.8 °F 70% 29.79 in 10.0 mi SW 5.8 mph - N/A   Clear
4:15 AM 78.8 °F - 69.8 °F 74% 29.77 in 10.0 mi South 8.1 mph - N/A   Clear
4:35 AM 78.8 °F - 69.8 °F 74% 29.77 in 10.0 mi SSW 6.9 mph - N/A   Clear
4:55 AM 78.8 °F - 69.8 °F 74% 29.76 in 10.0 mi SSW 4.6 mph - N/A   Scattered Clouds
5:15 AM 78.8 °F - 69.8 °F 74% 29.77 in 10.0 mi South 3.5 mph - N/A   Clear
5:35 AM 77.0 °F - 69.8 °F 78% 29.78 in 10.0 mi Calm Calm - N/A Rain Light Rain
5:55 AM 73.4 °F - 73.4 °F 100% 29.78 in 10.0 mi Calm Calm - N/A   Scattered Clouds
6:15 AM 73.4 °F - 71.6 °F 94% 29.78 in 10.0 mi Calm Calm - N/A   Scattered Clouds
6:35 AM 75.2 °F - 68.0 °F 78% 29.79 in 10.0 mi SW 5.8 mph - N/A Rain Light Rain
6:55 AM 77.0 °F - 68.0 °F 74% 29.79 in 10.0 mi West 5.8 mph - N/A   Mostly Cloudy
7:15 AM 77.0 °F - 68.0 °F 74% 29.80 in 10.0 mi WNW 5.8 mph 10.4 mph N/A   Overcast
7:35 AM 75.2 °F - 68.0 °F 78% 29.81 in 10.0 mi West 10.4 mph 16.1 mph N/A Rain Light Rain
7:55 AM 77.0 °F - 68.0 °F 74% 29.80 in 10.0 mi West 6.9 mph - N/A   Overcast
8:15 AM 75.2 °F - 69.8 °F 83% 29.81 in 7.0 mi SW 12.7 mph 19.6 mph N/A Rain Light Rain
8:35 AM 75.2 °F - 69.8 °F 83% 29.81 in 10.0 mi West 4.6 mph - N/A   Mostly Cloudy
8:55 AM 77.0 °F - 68.0 °F 74% 29.81 in 10.0 mi West 3.5 mph - N/A   Scattered Clouds
9:15 AM 77.0 °F - 68.0 °F 74% 29.82 in 10.0 mi SW 5.8 mph - N/A   Scattered Clouds
9:35 AM 78.8 °F - 69.8 °F 74% 29.82 in 10.0 mi WNW 4.6 mph - N/A   Mostly Cloudy
9:55 AM - - - N/A% 29.83 in - WSW 4.6 mph - N/A   Unknown
10:15 AM 78.8 °F - 69.8 °F 74% 29.82 in 10.0 mi WSW 6.9 mph - N/A   Mostly Cloudy
10:35 AM 78.8 °F - 69.8 °F 74% 29.83 in 10.0 mi WSW 4.6 mph - N/A Rain Rain
10:55 AM 71.6 °F - 68.0 °F 88% 29.86 in 4.0 mi NW 12.7 mph 31.1 mph 0.03 in Rain Light Rain
11:15 AM 71.6 °F - 66.2 °F 83% 29.87 in 10.0 mi Calm Calm - 0.03 in Rain Light Rain
11:35 AM 69.8 °F - 66.2 °F 88% 29.88 in 7.0 mi North 8.1 mph 17.3 mph 0.03 in Rain Rain
11:55 AM 68.0 °F - 64.4 °F 88% 29.90 in 10.0 mi North 5.8 mph - N/A Rain Rain
12:15 PM 66.2 °F - 66.2 °F 100% 29.89 in 4.0 mi NE 4.6 mph - N/A Rain Heavy Rain
12:55 PM 66.2 °F - 66.2 °F 100% 29.88 in 7.0 mi NNE 3.5 mph - N/A Rain Rain
1:15 PM 66.2 °F - 66.2 °F 100% 29.88 in 7.0 mi NNE 3.5 mph - N/A Rain Rain
1:35 PM 66.2 °F - 66.2 °F 100% 29.87 in 10.0 mi NNE 5.8 mph - N/A Rain Rain
1:55 PM 66.2 °F - 64.4 °F 94% 29.90 in 10.0 mi North 4.6 mph - N/A Rain Light Rain
2:15 PM 66.2 °F - 64.4 °F 94% 29.87 in 10.0 mi ENE 3.5 mph - N/A   Overcast
2:35 PM 66.2 °F - 64.4 °F 94% 29.87 in 10.0 mi NNE 4.6 mph - N/A   Overcast
3:15 PM 68.0 °F - 64.4 °F 88% 29.89 in 10.0 mi NNW 6.9 mph - N/A   Scattered Clouds
3:35 PM 68.0 °F - 62.6 °F 83% 29.89 in 10.0 mi NNE 5.8 mph - N/A   Scattered Clouds
3:55 PM 69.8 °F - 64.4 °F 83% 29.89 in 10.0 mi NE 4.6 mph - N/A   Mostly Cloudy
4:15 PM 71.6 °F - 62.6 °F 73% 29.90 in 10.0 mi NNW 5.8 mph - N/A   Scattered Clouds
4:35 PM 71.6 °F - 62.6 °F 73% 29.89 in 10.0 mi North 5.8 mph - N/A   Scattered Clouds
4:55 PM 71.6 °F - 62.6 °F 73% 29.89 in 10.0 mi North 9.2 mph - N/A   Scattered Clouds
5:15 PM 71.6 °F - 60.8 °F 69% 29.90 in 10.0 mi North 4.6 mph - N/A   Scattered Clouds
5:35 PM 69.8 °F - 60.8 °F 73% 29.91 in 10.0 mi NNW 6.9 mph - N/A   Scattered Clouds
5:55 PM 69.8 °F - 60.8 °F 73% 29.90 in 10.0 mi NW 4.6 mph - N/A   Scattered Clouds
6:15 PM 69.8 °F - 60.8 °F 73% 29.91 in 10.0 mi North 3.5 mph - N/A   Clear
6:35 PM 66.2 °F - 59.0 °F 78% 29.91 in 10.0 mi Calm Calm - N/A   Clear
6:55 PM 64.4 °F - 60.8 °F 88% 29.91 in 10.0 mi Calm Calm - N/A   Clear
7:15 PM 62.6 °F - 60.8 °F 94% 29.91 in 10.0 mi Calm Calm - N/A   Clear
7:35 PM 62.6 °F - 60.8 °F 94% 29.92 in 10.0 mi Calm Calm - N/A   Clear
7:55 PM 60.8 °F - 60.8 °F 100% 29.93 in 10.0 mi Calm Calm - N/A   Clear
8:15 PM 60.8 °F - 60.8 °F 100% 29.94 in 10.0 mi Calm Calm - N/A   Clear
8:35 PM 60.8 °F - 59.0 °F 94% 29.95 in 10.0 mi Calm Calm - N/A   Clear
8:55 PM 60.8 °F - 59.0 °F 94% 29.96 in 10.0 mi Calm Calm - N/A   Clear
9:15 PM 59.0 °F - 57.2 °F 94% 29.97 in 10.0 mi Calm Calm - N/A   Clear
9:35 PM 59.0 °F - 57.2 °F 94% 29.98 in 10.0 mi Calm Calm - N/A   Clear
10:15 PM 57.2 °F - 55.4 °F 94% 29.98 in 10.0 mi Calm Calm - N/A   Clear
10:35 PM 57.2 °F - 55.4 °F 94% 29.98 in 10.0 mi Calm Calm - N/A   Clear
10:55 PM 57.2 °F - 55.4 °F 94% 29.98 in 10.0 mi Calm Calm - N/A   Clear
11:15 PM 55.4 °F - 55.4 °F 100% 29.98 in 10.0 mi Calm Calm - N/A   Clear
11:55 PM 55.4 °F - 55.4 °F 100% 29.99 in 2.5 mi Calm Calm - N/A   Mostly Cloudy